Edgbaston, United Kingdom

4:30 PM GMT on February 25, 2017 (GMT +0000)
Birmingham

Weather History for EGBB - November, 2012

Change the Weather History Date:

Monday, November 26, 2012

  Actual Average Record
Temperature  
Mean Temperature 42 °F -  
Max Temperature 48 °F 46 °F 53 °F (2011)
Min Temperature 35 °F 34 °F 23 °F (2010)
Degree Days  
Heating Degree Days 24    
Moisture  
Dew Point 42 °F    
Average Humidity 97    
Maximum Humidity 100    
Minimum Humidity 87    
Precipitation  
Precipitation 0.00 in 0.09 in - ()
Sea Level Pressure  
Sea Level Pressure 29.46 in    
Wind  
Wind Speed 5 mph ()    
Max Wind Speed 13 mph    
Max Gust Speed -    
Visibility 4.5 miles    
Events Fog , Rain    
Averages and records for this station are not official NWS values.
T = Trace of Precipitation, MM = Missing Value Source: Averaged Metar Reports

Daily Weather History Graph

Daily Weather History Graph

Search for Another Location

Airport or City:

Trip Planner

Search our weather history database for the weather conditions in past years. The results will help you decide how hot, cold, wet, or windy it might be!

Date:

Astronomy

Nov. 26, 2012 Rise Set
Actual Time 7:47 AM GMT 4:00 PM GMT
Civil Twilight 7:08 AM GMT 4:40 PM GMT
Nautical Twilight 6:25 AM GMT 5:23 PM GMT
Astronomical Twilight 5:44 AM GMT 6:03 PM GMT
Moon 2:52 PM GMT (11/26) 5:34 AM GMT (11/26)
Length of Visible Light 9h 32m
Length of Day
8h 13m
Waxing Gibbous, 96% of the Moon is Illuminated
Nov 26
Waxing Gibbous
Nov 28
Full
Dec 6
Last Quarter
Dec 13
New
Dec 20
First Quarter

Hourly Weather History & Observations

Time (GMT) Temp. Windchill Dew Point Humidity Pressure Visibility Wind Dir Wind Speed Gust Speed Precip Events Conditions
12:20 AM 48.2 °F - 46.4 °F 93% 29.47 in 6.2 mi SSW 8.1 mph - N/A Rain Light Rain
12:50 AM 46.4 °F 42.4 °F 44.6 °F 93% 29.47 in 6.2 mi SSW 8.1 mph - N/A   Light Drizzle
1:20 AM 46.4 °F 44.3 °F 44.6 °F 93% 29.47 in 6.2 mi South 4.6 mph - N/A   Drizzle
1:50 AM 46.4 °F 42.9 °F 44.6 °F 93% 29.44 in 6.2 mi South 6.9 mph - N/A   Scattered Clouds
2:20 AM 44.6 °F 41.4 °F 42.8 °F 93% 29.44 in 6.2 mi South 5.8 mph - N/A   Mostly Cloudy
2:50 AM 44.6 °F 42.2 °F 42.8 °F 93% 29.44 in 6.2 mi SSE 4.6 mph - N/A   Mostly Cloudy
3:20 AM 44.6 °F 41.4 °F 42.8 °F 93% 29.44 in 6.2 mi SE 5.8 mph - N/A   Mostly Cloudy
3:50 AM 42.8 °F 39.3 °F 41.0 °F 93% 29.44 in 6.2 mi SSE 5.8 mph - N/A   Scattered Clouds
4:20 AM 44.6 °F 43.1 °F 42.8 °F 93% 29.44 in 6.2 mi South 3.5 mph - N/A   Mostly Cloudy
4:50 AM 44.6 °F 41.4 °F 42.8 °F 93% 29.44 in 6.2 mi SSE 5.8 mph - N/A   Mostly Cloudy
5:50 AM 39.2 °F 37.0 °F 39.2 °F 100% 29.42 in 6.2 mi SSE 3.5 mph - N/A   Partly Cloudy
6:20 AM 37.4 °F 34.9 °F 37.4 °F 100% 29.42 in 6.2 mi Variable 3.5 mph - N/A   Partly Cloudy
6:50 AM 37.4 °F - 37.4 °F 100% 29.42 in 6.2 mi Calm Calm - N/A   Partly Cloudy
7:20 AM 37.4 °F - 37.4 °F 100% 29.44 in 4.3 mi Calm Calm - N/A Fog Shallow Fog
7:50 AM 37.4 °F - 37.4 °F 100% 29.44 in 0.5 mi Calm Calm - N/A Fog Fog
8:20 AM 35.6 °F - 35.6 °F 100% 29.44 in 0.1 mi Calm Calm - N/A Fog Fog
8:50 AM 35.6 °F - 35.6 °F 100% 29.44 in 0.2 mi Calm Calm - N/A Fog Fog
9:20 AM 39.2 °F - 39.2 °F 100% 29.44 in 0.1 mi Calm Calm - N/A Fog Fog
9:50 AM 41.0 °F 39.0 °F 41.0 °F 100% 29.44 in 0.1 mi Variable 3.5 mph - N/A Fog Fog
10:20 AM 42.8 °F 41.1 °F 42.8 °F 100% 29.44 in 0.1 mi Variable 3.5 mph - N/A Fog Fog
10:50 AM 42.8 °F - 42.8 °F 100% 29.44 in 0.2 mi Variable 2.3 mph - N/A Fog Fog
11:20 AM 42.8 °F 40.1 °F 42.8 °F 100% 29.44 in 1.2 mi North 4.6 mph - N/A   Overcast
11:50 AM 44.6 °F 42.2 °F 44.6 °F 100% 29.44 in 3.7 mi North 4.6 mph - N/A   Mostly Cloudy
12:20 PM 44.6 °F 42.2 °F 44.6 °F 100% 29.44 in 3.7 mi North 4.6 mph - N/A   Mostly Cloudy
12:50 PM 44.6 °F 41.4 °F 44.6 °F 100% 29.44 in 6.2 mi NNW 5.8 mph - N/A   Mostly Cloudy
1:20 PM 44.6 °F 41.4 °F 44.6 °F 100% 29.44 in 6.2 mi NNW 5.8 mph - N/A   Mostly Cloudy
1:50 PM 42.8 °F 40.1 °F 42.8 °F 100% 29.44 in 6.2 mi NNW 4.6 mph - N/A   Scattered Clouds
2:20 PM 44.6 °F 40.7 °F 42.8 °F 93% 29.44 in 6.2 mi NNW 6.9 mph - N/A   Scattered Clouds
2:50 PM 46.4 °F 42.9 °F 44.6 °F 93% 29.44 in 6.2 mi NW 6.9 mph - N/A   Mostly Cloudy
3:20 PM 46.4 °F 42.4 °F 42.8 °F 87% 29.47 in 6.2 mi NW 8.1 mph - N/A   Scattered Clouds
3:50 PM 44.6 °F 40.2 °F 42.8 °F 93% 29.47 in 6.2 mi NW 8.1 mph - N/A   Mostly Cloudy
4:20 PM 44.6 °F 38.8 °F 42.8 °F 93% 29.47 in 6.2 mi NW 11.5 mph - N/A   Mostly Cloudy
4:50 PM 44.6 °F 39.7 °F 42.8 °F 93% 29.47 in 6.2 mi NW 9.2 mph - N/A   Mostly Cloudy
5:20 PM 44.6 °F 40.2 °F 42.8 °F 93% 29.47 in 6.2 mi NW 8.1 mph - N/A   Mostly Cloudy
5:50 PM 42.8 °F 38.0 °F 42.8 °F 100% 29.47 in 6.2 mi NW 8.1 mph - N/A Rain Light Rain
6:20 PM 42.8 °F 37.5 °F 42.8 °F 100% 29.50 in 6.2 mi NW 9.2 mph - N/A Rain Light Rain
6:50 PM 42.8 °F 37.5 °F 41.0 °F 93% 29.50 in 6.2 mi NW 9.2 mph - N/A   Light Drizzle
7:20 PM 42.8 °F 37.5 °F 42.8 °F 100% 29.50 in 6.2 mi NW 9.2 mph - N/A   Light Drizzle
7:50 PM 42.8 °F 38.6 °F 42.8 °F 100% 29.50 in 2.5 mi NW 6.9 mph - N/A Rain Light Rain
8:20 PM 42.8 °F 38.0 °F 42.8 °F 100% 29.50 in 3.1 mi NW 8.1 mph - N/A Rain Light Rain
8:50 PM 44.6 °F 39.2 °F 42.8 °F 93% 29.50 in 4.3 mi NW 10.4 mph - N/A Rain Light Rain
9:20 PM 44.6 °F 39.7 °F 42.8 °F 93% 29.53 in 4.3 mi NNW 9.2 mph - N/A Rain Light Rain
9:50 PM 42.8 °F 37.5 °F 42.8 °F 100% 29.53 in 3.7 mi NW 9.2 mph - N/A Rain Light Rain
10:20 PM 42.8 °F 38.6 °F 42.8 °F 100% 29.53 in 1.7 mi NW 6.9 mph - N/A Rain Heavy Rain
10:50 PM 42.8 °F 37.0 °F 42.8 °F 100% 29.53 in 3.7 mi NNW 10.4 mph - N/A Rain Light Rain
11:20 PM 44.6 °F 38.4 °F 42.8 °F 93% 29.53 in 3.7 mi NNW 12.7 mph - N/A Rain Light Rain
11:50 PM 42.8 °F 37.0 °F 42.8 °F 100% 29.53 in 3.7 mi NW 10.4 mph - N/A Rain Light Rain